CDT,Max TemperatureF,Mean TemperatureF,Min TemperatureF,Max Dew PointF,MeanDew PointF,Min DewpointF,Max Humidity, Mean Humidity, Min Humidity, Max Sea Level PressureIn, Mean Sea Level PressureIn, Min Sea Level PressureIn, Max VisibilityMiles, Mean VisibilityMiles, Min VisibilityMiles, Max Wind SpeedMPH, Mean Wind SpeedMPH, Max Gust SpeedMPH,PrecipitationIn, CloudCover, Events, WindDirDegrees
2013-9-1,70,64,58,63,57,51,85,70,58,30.02,29.89,29.78,10,10,10,16,8,23,0.00,4,,306
2013-9-2,67,60,53,52,50,48,88,74,54,30.13,30.07,30.02,10,10,7,10,4,,0.00,4,,329
2013-9-3,76,60,45,60,52,44,94,75,50,30.11,30.06,30.01,10,9,4,7,1,,0.00,0,,199
2013-9-4,84,69,55,64,58,53,91,70,44,30.18,30.10,30.03,10,10,10,8,2,,0.03,0,,35
2013-9-5,81,70,60,65,58,53,82,67,39,30.24,30.18,30.11,10,10,10,8,4,,0.00,1,,95
2013-9-6,90,80,70,67,65,62,91,67,40,30.11,29.99,29.88,10,10,7,14,6,20,0.00,3,Rain,162
2013-9-7,90,78,65,68,65,58,91,66,39,30.04,29.94,29.87,10,10,4,13,4,21,0.00,0,,31
2013-9-8,72,67,62,62,57,50,81,72,61,30.06,30.00,29.89,10,10,10,12,8,16,0.00,6,Rain,59
2013-9-9,89,77,66,71,67,59,91,77,52,29.89,29.75,29.65,10,8,2,15,4,20,0.03,5,Rain-Thunderstorm,177
2013-9-10,82,74,65,65,62,54,90,72,38,30.01,29.91,29.79,10,10,10,16,5,22,0.01,2,Rain-Thunderstorm,239
2013-9-11,83,72,61,60,54,46,90,58,27,30.10,30.04,30.01,10,10,10,14,3,21,0.00,1,,287
2013-9-12,73,62,53,52,46,40,84,57,32,30.25,30.20,30.09,10,10,10,15,7,23,0.00,1,,330
2013-9-13,68,55,42,47,43,40,91,64,37,30.30,30.22,30.09,10,10,10,6,1,,0.00,0,,113
2013-9-14,69,59,49,58,49,43,92,74,45,30.09,30.00,29.91,10,9,2,10,4,,0.46,3,Rain,150
2013-9-15,68,58,48,54,51,45,94,79,55,30.34,30.11,29.90,10,9,3,14,6,20,0.24,7,Rain,18
2013-9-16,64,51,38,45,41,36,93,69,40,30.42,30.35,30.25,10,10,10,8,2,,0.00,0,,110
2013-9-17,66,57,48,56,49,42,93,75,58,30.25,30.11,29.95,10,9,3,14,7,23,0.01,6,Rain,140
2013-9-18,76,67,58,68,63,56,94,87,72,29.94,29.79,29.69,10,5,1,12,6,20,0.07,6,Rain,137
2013-9-19,75,68,61,67,63,52,91,82,66,29.82,29.73,29.65,10,9,2,23,4,43,0.53,3,Rain-Thunderstorm,232
2013-9-20,62,56,50,54,50,45,90,78,54,29.96,29.88,29.82,10,10,5,16,9,23,0.00,6,Rain,274
2013-9-21,62,54,45,47,44,42,92,75,51,30.02,29.97,29.93,10,10,10,8,4,,0.00,1,,289
2013-9-22,73,58,43,54,48,40,90,70,48,29.97,29.91,29.84,10,10,10,17,6,23,0.00,0,,111
2013-9-23,72,64,55,53,50,48,77,63,43,29.94,29.91,29.87,10,10,10,17,9,24,0.00,0,,133
2013-9-24,73,60,48,55,50,46,90,69,42,29.98,29.95,29.93,10,10,10,9,4,,0.00,0,,117
2013-9-25,72,60,48,54,50,46,91,69,44,29.98,29.93,29.87,10,10,7,13,3,17,0.00,0,,115
2013-9-26,80,68,56,59,54,50,82,64,45,29.92,29.88,29.81,10,10,10,21,9,28,0.00,0,,123
2013-9-27,83,75,67,62,59,58,76,63,44,29.91,29.85,29.79,10,10,10,18,10,28,0.00,1,Rain,140
2013-9-28,72,60,47,62,52,43,91,74,60,29.94,29.78,29.63,10,9,2,20,11,29,0.15,4,Rain,189
2013-9-29,76,60,43,47,43,39,85,59,28,29.96,29.88,29.77,10,10,10,14,4,22,0.00,0,,155
2013-9-30,79,68,56,51,47,43,66,51,32,29.78,29.66,29.59,10,10,10,14,9,24,0.00,0,,165